Flag for Saudi Arabia Weather past 2 weeks in Makkah, Saudi Arabia

Now
86 °F

Clear.


Feels Like: 87 °F
Forecast: 77 / 99 °F
Wind: 7 mph from Southwest

Location: Jeddah King Abdul Aziz International Airport

Current Time: May 3, 2015 at 7:59:10 PM

Latest Report: May 3, 2015 at 7:00 PM


Visibility: 10 mi

Pressure: 29.71 "Hg

Humidity: 49%

Dew point: 64 °F

Location of MakkahLocation

Historic Weather in Makkah — Graph

°F

Makkah temperature yesterday

Maximum temperature yesterday: 90 °F (at 11:00 AM)
Minimum temperature yesterday: 77 °F (at 6:00 AM)
Average temperature yesterday: 83 °F

Past Weeks' High & Low Weather Summary

 TemperatureHumidityPressure
High99 °F (Apr 30, 10:00 AM)84% (May 2, 7:00 AM)29.89 "Hg (May 2, 7:00 AM)
Low75 °F (Apr 19, 3:00 AM)19% (Apr 30, 10:00 AM)29.71 "Hg (Apr 25, 2:00 PM)
Average84 °F50%29.79 "Hg
* Reported Apr 18 6:00 PM — May 3 6:00 PM, Makkah, Weather by CustomWeather, © 2015

Note: Actual official high and low records may vary slightly from our data, if they occured in-between our weather recording intervals... More about our weather records

Advertising

Makkah weather history for previous 24 hours

 ConditionsComfort  
Time TempWeatherWind HumidityBarometerVisibility
6:00 PM
Sun, May 3
90 °FPassing clouds.7 mph41%29.71 "HgN/A
5:00 PM90 °FPassing clouds.7 mph41%29.71 "HgN/A
4:00 PM90 °FScattered clouds.9 mph46%29.71 "HgN/A
3:00 PM90 °FScattered clouds.14 mph46%29.74 "HgN/A
2:00 PM88 °FPartly sunny.7 mph49%29.77 "HgN/A
1:00 PM90 °FScattered clouds.7 mph46%29.77 "HgN/A
12:00 PM86 °FScattered clouds.12 mph49%29.77 "HgN/A
11:00 AM86 °FPassing clouds.2 mph49%29.80 "HgN/A
10:00 AM88 °FPassing clouds.5 mph46%29.80 "HgN/A
9:00 AM84 °FPassing clouds.5 mph58%29.77 "Hg5 mi
8:00 AM82 °FPassing clouds.7 mph58%29.77 "Hg5 mi
7:00 AM82 °FScattered clouds.5 mph55%29.74 "Hg4 mi
6:00 AM79 °FPassing clouds.No wind58%29.71 "Hg5 mi
5:00 AM79 °FClear.No wind61%29.71 "Hg10 mi
4:00 AM79 °FClear.No wind61%29.71 "Hg10 mi
3:00 AM79 °FClear.No wind61%29.71 "Hg10 mi
2:00 AM81 °FClear.No wind62%29.74 "Hg10 mi
1:00 AM81 °FClear.No wind62%29.74 "Hg10 mi
12:00 AM82 °FClear.5 mph58%29.77 "Hg10 mi
11:00 PM
Sat, May 2
82 °FClear.5 mph62%29.77 "Hg10 mi
10:00 PM82 °FClear.2 mph66%29.77 "Hg10 mi
9:00 PM82 °FClear.5 mph70%29.77 "Hg10 mi
8:00 PM82 °FClear.2 mph58%29.74 "Hg10 mi
7:00 PM82 °FClear.5 mph70%29.74 "Hg10 mi
Weather by CustomWeather, © 2015

See weather overviewHow to use our weather pages